Simultaneous Nadir Overpasses (SNOs) Predictions

Prediction of SNOs between AURA and NPP Satellite Orbit:

Table of predicted SNOs for the next 14.0 days since TLE Epoch: 2/22/2014
Index Date (AURA) Time (AURA) Lat,Lon (AURA) SZA (AURA ) Date (NPP) Time (NPP) Lat,Lon (NPP) SZA (NPP ) Distance(km) Time Diff (sec)
1 02/23/2014 01:14:21 -78.21,-128.86 75.55 02/23/2014 01:13:22 -78.22,-128.80 75.51 1.30 59
2 02/23/2014 02:03:36 78.68, 41.16 103.85 02/23/2014 02:03:54 78.69, 41.29 103.81 3.07 18
3 02/25/2014 17:30:44 -78.31, -12.47 76.67 02/25/2014 17:30:16 -78.31, -12.50 76.64 0.93 28
4 02/25/2014 18:19:59 78.77, 157.57 102.73 02/25/2014 18:20:48 78.77, 157.62 102.68 1.09 49
5 02/28/2014 08:57:55 77.73, -66.92 103.08 02/28/2014 08:56:41 77.76, -66.93 103.13 3.95 74
6 02/28/2014 09:47:06 -78.44, 104.08 77.84 02/28/2014 09:47:10 -78.44, 104.00 77.83 1.82 4
7 03/03/2014 01:14:06 78.28, 51.55 101.36 03/03/2014 01:13:25 78.29, 51.62 101.38 1.64 41
8 03/03/2014 02:03:25 -78.64,-138.99 79.12 03/03/2014 02:04:02 -78.63,-139.05 79.14 1.37 37
9 03/05/2014 17:30:27 78.33, 167.72 100.25 03/05/2014 17:30:21 78.32, 167.60 100.28 2.94 6
10 03/05/2014 18:19:43 -78.81, -22.11 80.40 03/05/2014 18:20:54 -78.81, -22.09 80.46 0.46 71
11 03/08/2014 08:57:27 -78.09, 114.82 80.49 03/08/2014 08:56:39 -78.08, 114.73 80.43 2.47 48




NCC Satellite Simultaneous Nadir Overpasses (SNOs) Prediction Service
